Regional Weather Roundup
Issued by NWS

Home | Current Version | Previous Version | Text Only | Print | Product List | Glossary Off
Versions: 1 2 3 4 5 6 7 8 9 10 11 12 13 14 15 16 17 18 19 20 21 22 23 24 25 26 27 28 29 30 31 32 33 34 35 36 37 38 39 40 41 42 43 44 45 46 47 48 49 50

000
ASUS43 KLMK 041910
RWRKY
KENTUCKY REGIONAL WEATHER ROUNDUP
NATIONAL WEATHER SERVICE LOUISVILLE KY
300 PM EDT TUE AUG 04 2015

NOTE "FAIR" INDICATES FEW OR NO CLOUDS BELOW 12,000 FEET
WITH NO SIGNIFICANT WEATHER AND/OR OBSTRUCTIONS TO VISIBILITY.

KYZ001>023-026-027-061>063-070>075-042000-
WESTERN AND SOUTH CENTRAL KENTUCKY

CITY           SKY/WX    TMP DP  RH WIND       PRES   REMARKS
PADUCAH        PTSUNNY   94  72  48 SW8       29.97F HX 102
HENDERSON      SUNNY     91  75  59 W8        29.95F HX 102
OWENSBORO      SUNNY     93  78  61 SW7       29.98F HX 108
HOPKINSVILLE   MOSUNNY   92  72  51 SW14G20   29.99F HX  99
BOWLING GREEN  MOSUNNY   94  69  44 SW12      29.99F HX  99
GLASGOW        MOSUNNY  N/A N/A N/A W8        30.00F
$$

KYZ024-025-028>034-038-045-046-053-042000-
NORTH CENTRAL KENTUCKY

CITY           SKY/WX    TMP DP  RH WIND       PRES   REMARKS
LOUISVILLE/SDF PTSUNNY   89  67  47 NW8       29.97F HX  92
LOUISVILLE/LOU PTSUNNY   88  66  48 SW9G17    29.99F HX  90
FORT KNOX      LGT RAIN  86  70  58 W7        29.99F HX  90
$$

KYZ035>037-039>044-047>052-055>060-089>105-042000-
NORTHEAST KENTUCKY

CITY           SKY/WX    TMP DP  RH WIND       PRES   REMARKS
LEXINGTON      CLOUDY    86  69  56 W7        30.01F HX  90
COVINGTON      PTSUNNY   84  59  42 W12       29.99S
FRANKFORT      CLOUDY    84  69  60 W8G17     29.99F
$$

KYZ054-064>069-076>088-106>120-042000-
SOUTHEAST KENTUCKY

CITY           SKY/WX    TMP DP  RH WIND       PRES   REMARKS
JACKSON        PTSUNNY   84  71  65 CALM      30.02F
LONDON         PTSUNNY   90  66  45 W13       30.01F HX  92
SOMERSET       PTSUNNY   88  70  55 W10       30.02F HX  92
MIDDLESBORO    MOSUNNY   90  70  51 NW6       30.01F HX  95
MONTICELLO     PTCLDY    91  74  57 VRB5      30.04F HX 100
$$




USA.gov is the U.S. government's official web portal to all federal, state and local government web resources and services.